Location: Unspecified
(0.0000°N, 0.0000°E)
Time: 02:11:28
(UTC+00:00)

Transit 2A - All Passes

Search period start: 19 January 2017 00:00
Search period end: 29 January 2017 00:00
Orbit: 600 x 960 km, 66.7° (Epoch: 18 January)

Date Brightness Start Highest point End Pass type
(mag) Time Alt. Az. Time Alt. Az. Time Alt. Az.
19 Jan - 07:59:58 10° NNW 08:04:19 73° ENE 08:09:01 10° SSE daylight
19 Jan - 18:52:32 10° SSE 18:56:45 19° ESE 19:00:50 10° ENE visible
19 Jan - 20:34:04 10° SW 20:39:50 39° WNW 20:45:16 10° N visible
20 Jan - 07:26:20 10° N 07:30:25 38° ENE 07:34:45 10° SE daylight
20 Jan - 18:21:03 10° SE 18:22:42 11° ESE 18:24:20 10° E daylight
20 Jan - 19:59:42 10° SSW 20:05:55 62° WNW 20:11:43 10° N visible
21 Jan - 06:53:09 10° NNE 06:56:30 21° ENE 07:00:01 10° ESE daylight
21 Jan - 08:36:36 10° WNW 08:39:24 16° WSW 08:42:20 10° SSW daylight
21 Jan - 19:25:39 10° SSW 19:31:58 84° ESE 19:37:51 10° NNE visible
22 Jan - 06:20:59 10° NE 06:22:36 12° ENE 06:24:14 10° E daylight
22 Jan - 08:01:33 10° NW 08:05:23 28° WSW 08:09:28 10° S daylight
22 Jan - 18:51:53 10° S 18:57:59 53° ESE 19:03:43 10° NE visible
22 Jan - 20:38:16 10° W 20:40:52 13° WNW 20:43:24 10° NW visible
23 Jan - 07:27:06 10° NW 07:31:23 52° WSW 07:36:01 10° S daylight
23 Jan - 18:18:26 10° S 18:23:59 33° ESE 18:29:15 10° NE daylight
23 Jan - 20:02:23 10° WSW 20:06:57 21° WNW 20:11:17 10° NNW visible
24 Jan - 06:53:02 10° NNW 06:57:26 85° ENE 07:02:12 10° SSE daylight
24 Jan - 17:45:25 10° SSE 17:49:58 21° ESE 17:54:19 10° ENE daylight
24 Jan - 19:27:28 10° SW 19:33:01 34° WNW 19:38:14 10° N visible
25 Jan - 06:19:19 10° N 06:23:31 45° ENE 06:28:02 10° SE daylight
25 Jan - 17:13:22 10° SE 17:15:54 13° ESE 17:18:24 10° E daylight
25 Jan - 18:53:01 10° SSW 18:59:05 55° WNW 19:04:47 10° N visible
26 Jan - 05:45:59 10° NNE 05:49:37 25° ENE 05:53:26 10° SE visible
26 Jan - 07:30:06 10° W 07:32:32 14° WSW 07:35:06 10° SW daylight
26 Jan - 18:18:52 10° SSW 18:25:09 87° WNW 18:31:00 10° NNE daylight
27 Jan - 05:13:24 10° NE 05:15:42 14° ENE 05:18:05 10° ESE visible
27 Jan - 06:54:49 10° NW 06:58:31 25° WSW 07:02:27 10° SSW daylight
27 Jan - 17:45:02 10° S 17:51:12 59° ESE 17:56:56 10° NNE daylight
27 Jan - 19:32:32 10° W 19:34:02 11° WNW 19:35:31 10° WNW visible
28 Jan - 06:20:16 10° NW 06:24:30 45° WSW 06:29:07 10° S daylight
28 Jan - 17:11:30 10° S 17:17:12 37° ESE 17:22:33 10° NE daylight
28 Jan - 18:55:59 10° WSW 19:00:07 19° WNW 19:04:04 10° NNW visible
